Home > Weather > Montreux > Past weeks

Flag for Switzerland Weather for the Past 2 Weeks in Montreux, Vaud, Switzerland

Now
46 °F

Passing clouds.


Feels Like: 44 °F
Forecast: 35 / 41 °F
Wind: 5 mph from East

Location: Sion

Current Time: Apr 30, 2016 at 9:57:06 AM

Latest Report: Apr 30, 2016 at 8:00 AM


Visibility: 19 mi

Pressure: 30.06 "Hg

Humidity: 61%

Dew Point: 33 °F

Location of MontreuxLocation

Historic Weather in Montreux — Graph

°F

Montreux Temperature Yesterday

Maximum temperature yesterday: 64 °F (at 3:00 PM)
Minimum temperature yesterday: 34 °F (at 6:00 AM)
Average temperature yesterday: 51 °F

High & Low Weather Summary for the Past Weeks

 TemperatureHumidityPressure
High73 °F (Apr 21, 3:00 PM)94% (Apr 17, 8:00 AM)30.32 "Hg (Apr 17, 8:00 AM)
Low33 °F (Apr 28, 7:00 AM)23% (Apr 28, 3:00 PM)29.64 "Hg (Apr 26, 2:00 PM)
Average53 °F56%29.93 "Hg
* Reported Apr 15 1:00 PM — Apr 30 8:00 AM, Montreux, Weather by CustomWeather, © 2016

Note: Actual official high and low records may vary slightly from our data, if they occured in-between our weather recording intervals... More about our weather records

Advertising

Montreux Weather History for the Previous 24 Hours

Scroll right to see more
 ConditionsComfort  
Time TempWeatherWind HumidityBarometerVisibility
8:00 AM
Sat, Apr 30
46 °FPassing clouds.5 mph61%30.06 "Hg19 mi
7:00 AM43 °FQuite cool.6 mph68%30.07 "HgN/A
6:00 AM43 °FQuite cool.6 mph66%30.07 "HgN/A
3:00 AM43 °FQuite cool.5 mph70%30.07 "HgN/A
2:00 AM43 °FClear.No wind71%30.08 "Hg12 mi
1:00 AM45 °FCool.No wind64%30.08 "HgN/A
12:00 AM45 °FCool.1 mph74%30.07 "HgN/A
11:00 PM
Fri, Apr 29
46 °FPassing clouds.2 mph66%30.06 "Hg16 mi
10:00 PM50 °FCool.1 mph59%30.03 "HgN/A
9:00 PM56 °FRefreshingly cool.7 mph41%29.98 "HgN/A
8:00 PM57 °FPassing clouds.3 mph40%29.95 "Hg19 mi
7:00 PM61 °FRefreshingly cool.17 mph34%29.92 "HgN/A
6:00 PM63 °FMild.18 mph30%29.89 "HgN/A
5:00 PM64 °FPassing clouds.17 mph30%29.89 "Hg22 mi
4:00 PM64 °FMild.16 mph29%29.91 "HgN/A
3:00 PM64 °FMild.12 mph29%29.93 "HgN/A
2:00 PM62 °FPassing clouds.8 mph24%29.95 "Hg25 mi
1:00 PM60 °FRefreshingly cool.3 mph32%29.98 "HgN/A
12:00 PM56 °FRefreshingly cool.3 mph35%30.01 "HgN/A
11:00 AM53 °FSunny.2 mph39%30.05 "Hg31 mi
10:00 AM48 °FCool.2 mph44%30.09 "HgN/A
9:00 AM44 °FQuite cool.3 mph54%30.12 "HgN/A
Weather by CustomWeather, © 2016

See weather overviewHow to use our weather pages